When you browse on this site, cookies collect data to enhance your experience and personalize the content and advertising you see.
Visit our Privacy Policy to learn more. By continuing to use the site, you agree to this use of cookies and data.
  • In Hungary
  • List of Countries
  • For 7 days
  • Water Temperature
  • Weather Map
  • News
  • Weather Widgets
  • user-avatar
    Login

    Hourly Weather Grodziec

    Today, 16 September, Monday

    Time Temperature Precipitation Wind Pressure Humidity
    00:00 +16°C° 0 mm 3 mps 750 mmHg 74%
    01:00 +16°C° 0 mm 3 mps 750 mmHg 71%
    02:00 +16°C° 0 mm 3 mps 750 mmHg 68%
    03:00 +16°C° 0 mm 3 mps 750 mmHg 65%
    04:00 +16°C° 0 mm 3 mps 750 mmHg 62%
    05:00 +16°C° 0 mm 3 mps 750 mmHg 66%
    06:00 +16°C° 0 mm 3 mps 750 mmHg 70%
    07:00 +16°C° 0 mm 3 mps 750 mmHg 74%
    08:00 +17°C° 0 mm 4 mps 750 mmHg 69%
    09:00 +17°C° 0 mm 4 mps 750 mmHg 63%
    10:00 +18°C° 0 mm 4 mps 750 mmHg 57%
    11:00 +18°C° 0 mm 4 mps 750 mmHg 57%
    12:00 +18°C° 0 mm 4 mps 750 mmHg 57%
    13:00 +18°C° 0 mm 4 mps 749 mmHg 57%
    14:00 +17°C° 0 mm 4 mps 749 mmHg 61%
    15:00 +15°C° 0 mm 4 mps 749 mmHg 64%
    16:00 +14°C° 0 mm 3 mps 749 mmHg 68%
    17:00 +13°C° 0.2 mm 3 mps 748 mmHg 73%
    18:00 +13°C° 0.2 mm 3 mps 748 mmHg 78%
    19:00 +12°C° 0.2 mm 3 mps 748 mmHg 82%
    20:00 +12°C° 0.2 mm 3 mps 748 mmHg 84%
    21:00 +12°C° 0.2 mm 3 mps 748 mmHg 86%
    22:00 +12°C° 0.2 mm 3 mps 748 mmHg 87%
    23:00 +11°C° 0 mm 3 mps 748 mmHg 88%

    Tomorrow, 17 September, Tuesday

    Time Temperature Precipitation Wind Pressure Humidity
    00:00 +11°C° 0 mm 3 mps 748 mmHg 89%
    01:00 +10°C° 0 mm 3 mps 748 mmHg 90%
    02:00 +10°C° 0 mm 3 mps 748 mmHg 90%
    03:00 +10°C° 0 mm 3 mps 747 mmHg 90%
    04:00 +10°C° 0 mm 3 mps 747 mmHg 90%
    05:00 +10°C° 0 mm 3 mps 747 mmHg 88%
    06:00 +10°C° 0 mm 4 mps 747 mmHg 86%
    07:00 +10°C° 0 mm 5 mps 748 mmHg 85%
    08:00 +11°C° 0 mm 6 mps 747 mmHg 77%
    09:00 +13°C° 0 mm 6 mps 747 mmHg 69%
    10:00 +12°C° 0 mm 7 mps 747 mmHg 62%
    11:00 +12°C° 0 mm 7 mps 747 mmHg 60%
    12:00 +12°C° 0 mm 7 mps 746 mmHg 58%
    13:00 +12°C° 0 mm 7 mps 746 mmHg 57%
    14:00 +14°C° 0 mm 7 mps 745 mmHg 56%
    15:00 +14°C° 0 mm 7 mps 745 mmHg 55%
    16:00 +14°C° 0 mm 7 mps 745 mmHg 54%
    17:00 +12°C° 0.4 mm 7 mps 745 mmHg 63%
    18:00 +11°C° 0.4 mm 7 mps 745 mmHg 72%
    19:00 +10°C° 0.4 mm 7 mps 746 mmHg 81%
    20:00 +9°C° 0.2 mm 7 mps 746 mmHg 80%
    21:00 +8°C° 0.2 mm 7 mps 746 mmHg 79%
    22:00 +6°C° 0.2 mm 7 mps 747 mmHg 78%
    23:00 +6°C° 0 mm 7 mps 747 mmHg 78%

    Day after tomorrow, 18 September, Wednesday

    Time Temperature Precipitation Wind Pressure Humidity
    00:00 +6°C° 0 mm 7 mps 748 mmHg 78%
    01:00 +5°C° 0 mm 8 mps 748 mmHg 78%
    02:00 +5°C° 0 mm 7 mps 748 mmHg 78%
    03:00 +5°C° 0 mm 7 mps 749 mmHg 79%
    04:00 +4°C° 0 mm 7 mps 749 mmHg 79%
    05:00 +5°C° 0 mm 7 mps 750 mmHg 79%
    06:00 +5°C° 0 mm 7 mps 751 mmHg 78%
    07:00 +5°C° 0 mm 7 mps 751 mmHg 78%
    08:00 +8°C° 0 mm 7 mps 751 mmHg 71%
    09:00 +9°C° 0 mm 7 mps 752 mmHg 64%
    10:00 +11°C° 0 mm 7 mps 752 mmHg 58%
    11:00 +12°C° 0 mm 7 mps 752 mmHg 56%
    12:00 +12°C° 0 mm 7 mps 752 mmHg 55%
    13:00 +13°C° 0 mm 8 mps 752 mmHg 54%
    14:00 +12°C° 0 mm 7 mps 752 mmHg 54%
    15:00 +11°C° 0 mm 7 mps 751 mmHg 55%
    16:00 +11°C° 0 mm 7 mps 751 mmHg 56%
    17:00 +10°C° 0 mm 5 mps 752 mmHg 59%
    18:00 +10°C° 0 mm 4 mps 752 mmHg 61%
    19:00 +10°C° 0 mm 3 mps 752 mmHg 64%
    20:00 +9°C° 0 mm 3 mps 753 mmHg 66%
    21:00 +9°C° 0 mm 3 mps 753 mmHg 68%
    22:00 +9°C° 0 mm 3 mps 753 mmHg 69%
    23:00 +8°C° 0 mm 3 mps 753 mmHg 73%

    19 September, Thursday

    Time Temperature Precipitation Wind Pressure Humidity
    00:00 +7°C° 0 mm 3 mps 753 mmHg 76%
    01:00 +7°C° 0 mm 3 mps 753 mmHg 79%
    02:00 +6°C° 0 mm 4 mps 753 mmHg 76%
    03:00 +7°C° 0 mm 4 mps 753 mmHg 73%
    04:00 +7°C° 0 mm 4 mps 753 mmHg 70%
    05:00 +7°C° 0 mm 5 mps 753 mmHg 71%
    06:00 +7°C° 0 mm 5 mps 753 mmHg 73%
    07:00 +7°C° 0 mm 5 mps 754 mmHg 74%
    08:00 +8°C° 0 mm 5 mps 754 mmHg 70%
    09:00 +10°C° 0 mm 6 mps 754 mmHg 66%
    10:00 +11°C° 0 mm 6 mps 755 mmHg 61%
    11:00 +13°C° 0.1 mm 6 mps 755 mmHg 56%
    12:00 +14°C° 0.1 mm 6 mps 755 mmHg 52%
    13:00 +14°C° 0.1 mm 6 mps 755 mmHg 47%
    14:00 +14°C° 0.1 mm 6 mps 755 mmHg 47%
    15:00 +14°C° 0.1 mm 6 mps 755 mmHg 46%
    16:00 +14°C° 0.1 mm 6 mps 755 mmHg 46%
    17:00 +13°C° 0 mm 5 mps 755 mmHg 51%
    18:00 +11°C° 0 mm 4 mps 756 mmHg 57%
    19:00 +10°C° 0 mm 3 mps 756 mmHg 62%
    20:00 +9°C° 0 mm 3 mps 757 mmHg 64%
    21:00 +8°C° 0 mm 3 mps 757 mmHg 66%
    22:00 +8°C° 0 mm 3 mps 757 mmHg 68%
    23:00 +7°C° 0 mm 2 mps 758 mmHg 70%

    20 September, Friday

    Time Temperature Precipitation Wind Pressure Humidity
    00:00 +7°C° 0 mm 2 mps 758 mmHg 72%
    01:00 +6°C° 0 mm 2 mps 758 mmHg 75%
    02:00 +6°C° 0 mm 2 mps 758 mmHg 76%
    03:00 +5°C° 0 mm 2 mps 758 mmHg 77%
    04:00 +5°C° 0 mm 2 mps 758 mmHg 79%
    05:00 +5°C° 0 mm 2 mps 758 mmHg 77%
    06:00 +6°C° 0 mm 2 mps 758 mmHg 76%
    07:00 +7°C° 0 mm 2 mps 758 mmHg 74%
    08:00 +9°C° 0 mm 2 mps 759 mmHg 67%
    09:00 +10°C° 0 mm 2 mps 759 mmHg 59%
    10:00 +12°C° 0 mm 3 mps 759 mmHg 52%
    11:00 +13°C° 0 mm 3 mps 759 mmHg 49%
    12:00 +14°C° 0 mm 3 mps 759 mmHg 46%
    13:00 +16°C° 0 mm 3 mps 758 mmHg 43%
    14:00 +15°C° 0 mm 2 mps 758 mmHg 44%
    15:00 +15°C° 0 mm 2 mps 758 mmHg 45%
    16:00 +15°C° 0 mm 2 mps 758 mmHg 46%
    17:00 +14°C° 0 mm 2 mps 758 mmHg 51%
    18:00 +12°C° 0 mm 1 mps 758 mmHg 57%
    19:00 +9°C° 0 mm 0 mps 758 mmHg 62%
    20:00 +10°C° 0 mm 1 mps 759 mmHg 63%
    21:00 +10°C° 0 mm 1 mps 759 mmHg 64%
    22:00 +9°C° 0 mm 1 mps 759 mmHg 65%
    23:00 +9°C° 0 mm 1 mps 759 mmHg 65%

    21 September, Saturday

    Time Temperature Precipitation Wind Pressure Humidity
    00:00 +9°C° 0 mm 1 mps 759 mmHg 65%
    01:00 +8°C° 0 mm 2 mps 759 mmHg 65%
    02:00 +7°C° 0 mm 2 mps 759 mmHg 65%
    03:00 +7°C° 0 mm 2 mps 759 mmHg 66%
    04:00 +7°C° 0 mm 2 mps 759 mmHg 66%
    05:00 +7°C° 0 mm 2 mps 759 mmHg 66%
    06:00 +8°C° 0 mm 2 mps 759 mmHg 65%
    07:00 +8°C° 0 mm 2 mps 759 mmHg 64%
    08:00 +10°C° 0 mm 2 mps 759 mmHg 58%
    09:00 +13°C° 0 mm 3 mps 759 mmHg 52%
    10:00 +16°C° 0 mm 3 mps 759 mmHg 46%
    11:00 +17°C° 0 mm 3 mps 758 mmHg 43%
    12:00 +18°C° 0 mm 4 mps 758 mmHg 39%
    13:00 +18°C° 0 mm 4 mps 758 mmHg 36%
    14:00 +18°C° 0 mm 4 mps 757 mmHg 38%
    15:00 +18°C° 0 mm 4 mps 757 mmHg 39%
    16:00 +18°C° 0 mm 3 mps 757 mmHg 41%
    17:00 +16°C° 0 mm 3 mps 757 mmHg 45%
    18:00 +14°C° 0 mm 3 mps 757 mmHg 49%
    19:00 +12°C° 0 mm 3 mps 757 mmHg 54%
    20:00 +11°C° 0 mm 3 mps 757 mmHg 54%
    21:00 +11°C° 0 mm 3 mps 757 mmHg 55%
    22:00 +10°C° 0 mm 3 mps 757 mmHg 56%
    23:00 +10°C° 0 mm 3 mps 757 mmHg 56%
    Show more